Weather in Razdolinsk

Russia / Krasnoyarsk Krai     58°25′03″N   94°37′14″E
temp.,
°C
wind,
m/s
gust,
m/s
humid.,
%
clouds,
%
prec.,
mm/h
press.,
hPa
HPBL,
m
29 november, mon
mon2901:00−6wsw61494100 0.9 1021900
04:00−6wsw61393100 0.5 10221019
07:00−9wnw6158127 0.9 1025738
10:00−11w51586100 0.0 1028615
13:00−10w41484100 0.0 1029682
16:00−10w31287100 0.0 1029524
19:00−11ssw1497100 0.1 1029133
22:00−9ssw2896100 0.4 1027394
30 november, tue
tue3001:00−9sw31096100 0.8 1025490
04:00−8sw41195100 0.2 1023568
07:00−9sw51394100 0.3 1021587
10:00−8sw61493100 0.1 1020651
13:00−8wsw61588100 0.1 1018657
16:00−8wsw51493100 0.3 1017805
19:00−8wsw51394100 0.6 1017692
22:00−8wsw51494100 0.4 1016729
1 december, wed
wed101:00−7wsw51494100 0.9 1016873
04:00−8w61491100 0.3 1016885
07:00−8w61490100 0.5 10181028
10:00−7w5138895 0.2 10201133
13:00−10w41280100 0.2 1023591
16:00−12wsw1288100 0.0 102556
19:00−11ssw1191100 0.0 102551
22:00−11sse1396100 0.9 1022129
2 december, thu
thu201:00−9ssw31096100 2.6 1019530
04:00−8sw41395100 1.3 1017681
07:00−8wsw41194100 1.5 1016596
10:00−6wsw41195100 0.3 1016603
13:00−6wsw41295100 0.7 1015634
16:00−6wsw51495100 0.6 1014669
19:00−4wsw5139499 1.0 1014666
22:00−5wsw51394100 0.1 1014559
3 december, fri
fri301:00−6wsw51491100 0.1 1014508
04:00−6sw41493100 0.0 1013463
07:00−6sw41392100 0.0 1011396
10:00−6sw31391100 0.0 1010385
13:00−5ssw21294100 0.0 1008422
16:00−5s2994100 0.0 1006244
19:00−3ssw31693100 0.2 1002529
22:00−1sw71896100 0.9 9991215